Weather in Lyamtsevo

Russia / Pskov Oblast     58°31′08″N   29°28′28″E
temp.,
°C
wind,
m/s
gust,
m/s
humid.,
%
clouds,
%
prec.,
mm/h
press.,
hPa
HPBL,
m
16 april, fri
fri1600:00+5ne4126999 0.0 1026595
03:00+3ne4127793 0.0 1025435
06:00+2ne41283100 0.0 1026426
09:00+5ne51268100 0.0 1026495
12:00+10ene6105591 0.0 1025792
15:00+12ene695082 0.0 10251094
18:00+12ene5105395 0.0 10251077
21:00+8ene41359100 0.0 1026589
17 april, sat
sat1700:00+6ene4136554 0.0 1027493
03:00+5ene4127340 0.0 1027381
06:00+3ne4127980 0.0 1027362
09:00+7ene596490 0.0 1027494
12:00+12ene575585 0.0 1027936
15:00+14ene575074 0.0 10271216
18:00+14ene474950 0.0 10261195
21:00+9ne3115925 0.0 1027302
18 april, sun
sun1800:00+7ene311665 0.0 1028320
03:00+4ne310793 0.0 1028238
06:00+3ne310840 0.0 1028252
09:00+8ene48600 0.0 1028492
12:00+12ene57435 0.0 10271390
15:00+14ene56375 0.0 10261851
18:00+13ene47405 0.0 10262019
21:00+8ne27635 0.0 1027130
19 april, mon
mon1900:00+6ene397072 0.0 1028243
03:00+4ne39835 0.0 1028185
06:00+3ene279018 0.0 1028165
09:00+8ene37655 0.0 1028497
12:00+12e465112 0.0 10271513
15:00+13e4645100 0.0 10262022
18:00+10e3760100 0.0 1025916
21:00+9ese396883 0.0 1025586
20 april, tue
tue2000:00+8e3872100 0.0 1024620
03:00+7ene3876100 0.0 1023525
06:00+6ene3978100 0.0 1022509
09:00+7e4868100 0.0 1021751
12:00+10e5752100 0.0 10191442
15:00+11ene564499 0.0 10161967
18:00+10ene475297 0.0 10141615
21:00+7ne41067100 0.0 1012744